Grand Junction, CO

9:35 AM MST on January 19, 2017 (GMT -0700)
Walker

Weather History for KGJT - March, 2013

Change the Weather History Date:

Friday, March 15, 2013

  Actual Average Record
Temperature  
Mean Temperature 54 °F 44 °F  
Max Temperature 68 °F 57 °F 72 °F (1994)
Min Temperature 40 °F 31 °F 16 °F (1956)
Degree Days  
Heating Degree Days 11 21  
Month to date heating degree days 328 345  
Since 1 July heating degree days 5091 4724  
Cooling Degree Days 0 0  
Month to date cooling degree days 0 0  
Year to date cooling degree days 0 0  
Growing Degree Days 4 (Base 50)    
Moisture  
Dew Point 27 °F    
Average Humidity 42    
Maximum Humidity 64    
Minimum Humidity 20    
Precipitation  
Precipitation 0.00 in 0.03 in 0.38 in (1970)
Month to date precipitation 0.24 0.39  
Year to date precipitation 1.24 1.51  
Snow  
Snow 0.00 in 0.00 in 0.30 in (1970)
Month to date snowfall T 1.2  
Since 1 July snowfall 20.0 16.7  
Snow Depth 0.00 in    
Sea Level Pressure  
Sea Level Pressure 29.99 in    
Wind  
Wind Speed 6 mph (East)    
Max Wind Speed 17 mph    
Max Gust Speed 18 mph    
Visibility 10 miles    
Events      
T = Trace of Precipitation, MM = Missing Value Source: NWS Daily Summary

Daily Weather History Graph

Daily Weather History Graph

Search for Another Location

Airport or City:

Trip Planner

Search our weather history database for the weather conditions in past years. The results will help you decide how hot, cold, wet, or windy it might be!

Date:

Astronomy

Mar. 15, 2013 Rise Set
Actual Time 7:24 AM MDT 7:21 PM MDT
Civil Twilight 6:58 AM MDT 7:48 PM MDT
Nautical Twilight 6:27 AM MDT 8:19 PM MDT
Astronomical Twilight 5:55 AM MDT 8:50 PM MDT
Moon 9:19 AM MDT (3/15) 11:36 PM MDT (3/15)
Length of Visible Light 12h 49m
Length of Day
11h 56m
Waxing Crescent, 16% of the Moon is Illuminated
Mar 15
Waxing Crescent
Mar 19
First Quarter
Mar 27
Full
Apr 2
Last Quarter
Apr 10
New

Hourly Weather History & Observations

Time (MDT) Temp. Windchill Dew Point Humidity Pressure Visibility Wind Dir Wind Speed Gust Speed Precip Events Conditions
12:53 AM 45.0 °F 39.7 °F 30.0 °F 56% 30.14 in 10.0 mi SE 10.4 mph - N/A   Clear
1:53 AM 48.0 °F - 28.9 °F 48% 30.11 in 10.0 mi ESE 12.7 mph - N/A   Clear
2:53 AM 46.0 °F 41.4 °F 30.0 °F 54% 30.10 in 10.0 mi ESE 9.2 mph - N/A   Clear
3:53 AM 43.0 °F 38.8 °F 30.0 °F 60% 30.08 in 10.0 mi East 6.9 mph - N/A   Clear
4:53 AM 44.1 °F 37.1 °F 28.9 °F 55% 30.05 in 10.0 mi East 15.0 mph - N/A   Clear
5:53 AM 42.1 °F 34.9 °F 28.9 °F 60% 30.08 in 10.0 mi East 13.8 mph - N/A   Clear
6:53 AM 42.1 °F 34.5 °F 28.0 °F 58% 30.08 in 10.0 mi ESE 15.0 mph - N/A   Clear
7:53 AM 39.9 °F - 28.9 °F 65% 30.10 in 10.0 mi Calm Calm - N/A   Clear
8:53 AM 46.0 °F 41.9 °F 30.0 °F 54% 30.10 in 10.0 mi SE 8.1 mph - N/A   Clear
9:53 AM 52.0 °F - 30.0 °F 43% 30.09 in 10.0 mi SE 9.2 mph - N/A   Clear
10:53 AM 54.0 °F - 27.0 °F 35% 30.07 in 10.0 mi Calm Calm - N/A   Clear
11:53 AM 57.0 °F - 26.1 °F 30% 30.06 in 10.0 mi Calm Calm - N/A   Clear
12:53 PM 60.1 °F - 26.1 °F 27% 30.03 in 10.0 mi Calm Calm - N/A   Clear
1:53 PM 62.1 °F - 26.1 °F 25% 29.99 in 10.0 mi Calm Calm - N/A   Clear
2:53 PM 64.9 °F - 24.1 °F 21% 29.93 in 10.0 mi Calm Calm - N/A   Clear
3:53 PM 66.9 °F - 25.0 °F 21% 29.91 in 10.0 mi Calm Calm - N/A   Clear
4:53 PM 66.9 °F - 26.1 °F 21% 29.88 in 10.0 mi NW 6.9 mph - N/A   Clear
5:53 PM 64.9 °F - 25.0 °F 22% 29.88 in 10.0 mi NNW 5.8 mph - N/A   Clear
6:53 PM 61.0 °F - 26.1 °F 26% 29.88 in 10.0 mi NNW 8.1 mph - N/A   Clear
7:53 PM 57.9 °F - 26.1 °F 30% 29.91 in 10.0 mi North 5.8 mph - N/A   Clear
8:53 PM 54.0 °F - 27.0 °F 35% 29.89 in 10.0 mi Calm Calm - N/A   Clear
9:53 PM 48.9 °F - 28.0 °F 44% 29.88 in 10.0 mi East 3.5 mph - N/A   Clear
10:53 PM 52.0 °F - 27.0 °F 38% 29.87 in 10.0 mi ENE 3.5 mph - N/A   Clear
11:53 PM 46.9 °F - 28.0 °F 48% 29.86 in 10.0 mi East 3.5 mph - N/A   Clear